Location: Bey Da??
(36.8009°N, 30.2653°E)
Time: 21:47:27
(UTC+00:00)

Daily predictions for brighter satellites

Satellite Brightness Start Highest point End
(mag) Time Altitude Azimuth Time Altitude Azimuth Time Altitude Azimuth
Centaur D AC-25 4.3 17:20:26 10° SW 17:25:14 37° SSE 17:41:17 10° E
Cosmos 1697 Rocket 2.8 17:37:52 10° NNW 17:43:27 63° ENE 17:48:58 10° SSE
USA 186 1.8 17:41:36 10° SSE 17:44:55 82° ENE 17:48:15 10° N
Cosmos 2251 Rocket 3.7 17:40:53 10° S 17:45:57 52° ESE 17:51:05 10° NNE
COSMOS 2406 3.7 17:42:09 10° S 17:47:27 39° ESE 17:52:45 10° NE
Cosmos 44 Rocket 4.2 17:43:11 10° NW 17:47:46 44° WSW 17:52:13 10° S
Cosmos 1674 4.0 17:47:16 10° SE 17:49:48 19° E 17:52:20 10° NE
CSL-04 Rocket 3.7 17:46:26 10° SSE 17:51:38 66° ENE 17:56:55 10° N
Cosmos 1743 Rocket 4.4 17:48:17 10° NNW 17:52:38 53° W 17:56:57 10° S
Meteor 1-18 Rocket 4.3 17:47:58 10° S 17:53:51 74° E 17:59:40 10° NNE
Cosmos 1975 2.7 17:52:50 10° N 17:56:43 71° E 18:00:33 10° SSE
MOS 1-B Rocket 4.1 17:51:31 10° SSE 17:57:57 69° ENE 18:03:41 10° N
Cosmos 1842 4.5 17:55:10 10° SE 17:58:00 22° E 18:00:50 10° NE
Cosmos 2195 Rocket 4.5 17:52:42 10° S 17:58:48 79° E 18:04:57 10° N
Cosmos 1328 Rocket 3.5 17:55:15 10° S 17:59:30 73° E 18:03:47 10° N
Cosmos 1980 Rocket 2.9 17:54:49 10° N 18:00:09 40° ENE 18:05:19 10° SE
Cosmos 407 Rocket 3.5 17:55:50 10° SSW 18:01:04 83° ESE 18:06:17 10° NNE
USA 59 Rocket 3.3 18:01:15 10° W 18:03:48 13° WSW 18:06:43 10° SW
CSL-04 Debris 4.2 17:58:25 10° SSE 18:03:51 87° WSW 18:09:17 10° NNW
Cosmos 1092 Rocket 4.0 18:01:34 10° S 18:07:52 78° E 18:14:14 10° N
Okean-O 3.1 18:07:48 10° SE 18:11:56 45° ENE 18:16:09 10° N
CZ-4C R/B 3.7 18:10:41 10° NNE 18:14:41 47° E 18:18:39 10° S
EXPRESS MD2 3.8 18:10:56 10° WSW 18:14:56 49° NW 18:17:27 10° NE
Genesis I 3.8 18:13:07 10° SW 18:16:32 53° WNW 18:19:59 10° NNE
Cosmos 1954 Rocket 4.4 18:11:39 10° S 18:16:36 42° ESE 18:21:34 10° NNE
NOSS 3-4 (A) 4.1 18:12:57 10° NW 18:20:11 79° WSW 18:28:09 11° SSE
NOSS 3-4 (C) 4.1 18:13:00 10° NW 18:20:14 80° WSW 18:28:07 11° SSE
Terra 3.3 18:20:23 13° ESE 18:23:13 22° ENE 18:26:47 10° NNE
PSLV R/B 4.0 18:20:52 10° S 18:24:24 61° W 18:27:54 10° NNW
BREEZE-M DEB (TANK) 2.6 18:21:54 10° WSW 18:24:37 80° NNW 18:31:36 10° NE
Cosmos 676 Rocket 4.4 18:20:57 10° S 18:25:55 41° ESE 18:30:53 10° NNE
Cosmos 1515 Rocket 3.5 18:24:08 10° S 18:28:24 67° E 18:32:41 10° NNE
CZ-4B R/B 4.3 18:24:12 10° S 18:29:07 41° W 18:34:08 10° NNW
Cosmos 1190 Rocket 4.0 18:24:28 10° SSW 18:29:45 80° ESE 18:35:04 10° NNE
Tiangong -0.7 18:27:12 10° WNW 18:30:10 35° N 18:33:07 10° ENE
Cosmos 1707 2.9 18:27:50 16° SSE 18:30:25 43° E 18:33:51 10° NNE
Okean O Rocket 2.6 18:31:32 10° S 18:35:46 46° W 18:40:00 10° NNW
SeaSat 1 3.2 18:32:33 17° ESE 18:35:48 38° ENE 18:40:20 10° N
Cosmos 1633 Rocket 3.5 18:31:35 10° NNW 18:35:55 62° W 18:40:12 10° S
USA 234 3.6 18:31:30 10° NE 18:37:59 69° NW 18:44:27 10° WSW
OPS 6432 4.2 18:38:06 10° NW 18:41:12 81° WSW 18:42:55 27° SSE
IRS-1A Rocket 4.4 18:40:30 19° SE 18:44:21 58° ENE 18:49:44 10° N
CZ-4 R/B 4.3 18:43:32 10° WSW 18:44:46 11° W 18:46:00 10° WNW
Meteor 2-12 Rocket 4.4 18:38:55 10° S 18:45:04 83° E 18:51:15 10° N
Cosmos 1766 3.5 18:42:07 10° NNW 18:45:49 63° W 18:48:42 16° S
FALCON 9 R/B 4.2 18:43:36 10° WSW 18:47:33 22° SSW 18:52:04 16° SSE
Cosmos 1470 Rocket 3.6 18:43:30 10° N 18:47:51 76° W 18:51:09 17° S
IRIDIUM 104 4.4 18:43:59 10° N 18:49:13 79° W 18:54:00 12° S
MOS 1 Rocket 4.4 18:47:29 22° ESE 18:50:16 36° ENE 18:55:07 10° N
Cosmos 2360 Rocket 4.4 18:49:03 10° NNE 18:51:17 12° NE 18:53:30 10° ENE
Atlas Centaur 2 3.2 18:47:06 10° WSW 18:55:06 55° S 19:01:23 17° ESE
Cosmos 2333 Rocket 4.4 18:53:24 10° NNE 18:55:47 13° NE 18:58:10 10° ENE
ERS-1 Rocket 3.1 18:53:15 25° SE 18:56:02 58° ENE 19:00:58 10° N
In-Cosmos 22 4.3 18:54:01 18° S 18:58:08 60° E 19:03:38 10° NNE
Cosmos 2082 Rocket 3.6 18:53:17 10° SW 18:58:37 40° WNW 19:03:59 10° N
SL-16 R/B 3.4 18:54:33 10° N 18:59:25 28° ENE 19:02:05 20° E
Resurs 01 Rocket 4.0 18:57:21 10° SW 19:00:27 19° W 19:03:33 10° NW
Spot 2 Rocket 3.9 18:58:06 27° SE 19:00:27 46° ENE 19:05:18 10° N
Cosmos 2369 3.7 18:55:23 10° NNW 19:01:08 84° WSW 19:04:36 25° SSE
Cosmos 1763 Rocket 3.4 18:57:39 10° NNW 19:02:56 90° SSE 19:05:44 28° SSE
SPOT 5 2.9 19:03:33 23° S 19:06:09 64° WSW 19:10:27 10° NNW
SL-14 R/B 4.4 19:07:06 25° E 19:07:06 25° E 19:09:59 10° NE
Cosmos 1441 Rocket 3.2 19:03:17 10° N 19:06:50 54° E 19:07:31 45° ESE
Lacrosse 5 rocket 3.8 19:07:07 10° W 19:08:49 12° WSW 19:10:30 10° SW
RESURS DK-1 4.5 19:06:36 10° NNE 19:08:56 15° NE 19:09:59 13° ENE
Centaur D-1AR AC-39 4.0 19:04:49 10° SSW 19:15:43 15° ESE 19:19:47 10° ESE
Centaur D AC-29 3.7 19:05:36 10° WSW 19:11:44 51° S 19:55:58 10° ESE
Centaur D AC-29 3.7 19:05:37 10° WSW 19:11:44 51° S 19:55:59 10° ESE
Centaur D AC-29 3.7 19:05:36 10° WSW 19:11:44 51° S 19:55:59 10° ESE
Centaur D AC-29 3.7 19:05:37 10° WSW 19:11:45 51° S 19:55:59 10° ESE
Centaur D AC-29 3.7 19:05:37 10° WSW 19:11:45 51° S 19:55:58 10° ESE
Centaur D AC-29 3.7 19:05:36 10° WSW 19:11:45 51° S 19:55:58 10° ESE
Cosmos 1933 Rocket 3.5 19:07:45 10° N 19:12:11 83° W 19:14:13 32° S
Cosmos 1470 2.9 19:11:30 10° NNW 19:15:08 61° W 19:16:30 34° SSW
ATLAS 2AS CENTAUR R/B 4.4 19:10:47 10° N 19:15:45 21° NE 19:20:28 10° E
IRS-1C Rocket 4.3 19:13:04 24° S 19:16:15 67° WSW 19:21:30 10° NNW
Cosmos 1300 4.2 19:16:32 10° NNE 19:18:53 21° ENE 19:18:53 21° ENE
Cosmos 1908 3.1 19:19:14 10° N 19:22:50 75° W 19:23:31 54° SSW
Meteor 1-22 Rocket 4.4 19:18:22 10° N 19:23:58 61° E 19:26:09 37° SE
Cosmos 381 Rocket 4.4 19:18:18 10° NNW 19:24:42 84° ENE 19:27:36 35° SSE
Ariane Rocket 2.9 19:22:59 39° SSE 19:24:54 77° ENE 19:30:00 10° N
Cosmos 1346 Rocket 4.3 19:23:50 10° NNE 19:26:36 22° ENE 19:26:36 22° ENE
Cosmos 468 Rocket 4.0 19:24:43 10° NNW 19:29:56 78° WSW 19:31:49 40° S
SPOT 3 Rocket 3.4 19:31:38 43° SSE 19:33:23 84° ENE 19:38:34 10° NNW
Cosmos 1356 Rocket 3.6 19:33:36 51° E 19:33:36 51° E 19:37:41 10° NNE
Cosmos 1850 Rocket 3.9 19:33:14 41° S 19:35:00 68° ESE 19:40:11 10° NNE
Cosmos 1758 3.8 19:34:11 10° N 19:37:41 42° ENE 19:37:41 42° ENE
Cosmos 1707 Rocket 3.6 19:39:08 57° ESE 19:39:25 58° E 19:43:47 10° NNE
Meteor 1-21 4.4 19:38:50 44° SE 19:40:19 57° E 19:46:00 10° NNE
Cosmos 1655 Rocket 4.0 19:38:03 34° S 19:41:04 81° E 19:47:30 10° N
S3M 4.0 19:35:20 10° N 19:41:43 87° W 19:44:25 37° S
Cosmos 1980 Rocket 3.9 19:39:18 10° NW 19:43:51 25° WSW 19:47:05 15° SW
Cosmos 2322 Rocket 2.9 19:38:51 10° N 19:44:12 41° ENE 19:45:40 34° E
USA 281 4.4 19:45:53 23° E 19:48:37 31° ENE 19:54:14 10° N
Spot 1 4.2 19:44:29 10° N 19:49:02 81° WNW 19:50:22 47° SSW
SJ 16-02 2.3 19:52:11 34° ENE 19:52:11 34° ENE 19:55:11 10° NNE
Cosmos 2278 3.7 19:47:20 10° NNW 19:53:04 79° WSW 19:54:32 51° S
Cosmos 1741 Rocket 4.0 19:51:37 41° SSW 19:53:29 85° WNW 19:58:48 10° NNE
Landsat 5 3.7 19:54:22 10° N 19:58:20 64° WNW 19:58:50 58° WSW
MetOp-A 3.9 19:59:26 63° SE 20:00:13 78° ENE 20:05:29 10° N
Terra 3.0 19:59:05 28° SW 20:00:33 34° W 20:04:51 10° NNW
Cosmos 1400 Rocket 4.3 20:00:07 26° WSW 20:01:18 32° WNW 20:04:49 10° NNW
Cosmos 968 Rocket 3.3 20:01:07 65° S 20:01:53 82° ESE 20:07:04 10° NNE
Okean 3 3.7 20:03:17 59° NE 20:03:17 59° NE 20:06:49 10° NNE
Cosmos 2237 4.3 19:59:05 10° NNW 20:04:47 71° WSW 20:05:58 55° S
Tiangong 0.1 20:03:59 10° WNW 20:05:19 23° WNW 20:05:19 23° WNW
Cosmos 1733 Rocket 3.0 20:03:01 10° N 20:07:15 77° NE 20:07:15 77° NE
Cosmos 2228 Rocket 3.6 20:07:19 47° WSW 20:08:08 55° W 20:12:37 10° N
Cosmos 2219 Rocket 3.5 20:08:05 10° N 20:12:55 28° ENE 20:14:05 26° E
SeaSat 1 4.0 20:12:15 23° SW 20:13:17 24° WSW 20:17:15 10° NW
Cosmos 1315 Rocket 4.0 20:15:49 34° NE 20:15:49 34° NE 20:18:19 10° NNE
ATLAS CENTAUR R/B 2.4 20:17:21 37° NW 20:17:21 37° NW 20:20:17 10° NNE
Meteor 2-10 Rocket 4.0 20:13:00 10° NNW 20:18:26 57° W 20:19:27 48° SW
H-2A R/B 4.3 20:23:31 23° ENE 20:23:31 23° ENE 20:26:22 10° NNE
Cosmos 1953 3.8 20:23:31 10° N 20:25:44 28° NNE 20:25:44 28° NNE
Okean 1-7 3.5 20:28:24 56° NNE 20:28:24 56° NNE 20:31:51 10° N
Cosmos 1455 4.1 20:28:26 10° N 20:29:57 22° NNE 20:29:57 22° NNE
CZ-2C R/B 3.9 20:29:42 10° N 20:33:28 64° N 20:33:28 64° N
Cosmos 2360 Rocket 2.0 20:30:24 10° NNW 20:36:06 86° ENE 20:36:22 82° SE
Cosmos 841 Rocket 4.5 20:35:39 10° NW 20:40:25 36° W 20:40:43 36° WSW
Cosmos 2333 Rocket 2.1 20:35:07 10° NNW 20:40:54 86° ENE 20:41:09 82° SE
SL-08 R/B 4.3 20:41:16 74° S 20:41:53 88° ESE 20:48:01 10° N
SL-16 R/B 3.1 20:38:22 10° NW 20:43:31 37° WSW 20:43:56 36° WSW
Atlas Centaur 2 3.2 20:36:13 10° W 20:43:37 48° SSW 20:43:37 48° SSW
RESURS DK-1 3.8 20:42:59 10° NW 20:45:34 32° WNW 20:45:34 32° WNW
Cosmos 839 Rocket 4.1 20:43:39 10° NNW 20:50:15 62° ENE 20:51:07 56° E
Cosmos 1703 Rocket 4.3 20:55:40 52° N 20:55:40 52° N 20:59:07 10° N
Cosmos 2322 4.3 21:01:57 10° N 21:07:22 44° ENE 21:07:35 44° ENE
ATLAS 2AS CENTAUR R/B 2.4 21:00:42 10° NNW 21:07:28 83° WSW 21:07:52 78° S
Cosmos 2237 Rocket 4.5 21:05:08 10° NNE 21:08:15 15° NE 21:10:35 12° ENE
Cosmos 2227 Rocket 4.4 21:11:48 13° ENE 21:11:48 13° ENE 21:13:03 10° ENE
Cosmos 2333 4.4 21:07:32 10° NNW 21:12:55 65° W 21:12:55 65° W
ARIANE 5 R/B 4.0 21:17:31 33° WNW 21:17:31 33° WNW 21:20:21 10° NNW
SL-24 R/B - RUBIN 2 4.5 21:13:50 10° NNW 21:20:21 68° ENE 21:20:40 66° ENE
Meteor 2-5 Rocket 4.4 21:21:05 46° ENE 21:21:05 46° ENE 21:26:09 10° NNE
Cosmos 1745 Rocket 3.9 21:20:33 73° WSW 21:20:55 75° W 21:27:17 10° N
COSMOS 2455 3.0 21:25:53 63° ENE 21:25:53 63° ENE 21:31:10 10° NNE
Cosmos 2322 Rocket 3.7 21:23:25 10° NW 21:27:28 24° W 21:27:28 24° W
SJ 16-02 3.7 21:28:53 15° WNW 21:29:38 15° WNW 21:32:10 10° NNW
Cosmos 1570 Rocket 4.3 21:24:21 10° NNW 21:29:00 66° N 21:29:00 66° N
Cosmos 2297 Rocket 3.0 21:31:24 39° ENE 21:31:24 39° ENE 21:35:29 10° NE
USA 281 3.6 21:32:45 47° WSW 21:32:50 47° WSW 21:39:08 10° NW
Nadezhda 1 Rocket 4.1 21:30:51 10° NNW 21:37:03 64° W 21:37:05 64° W
COSMOS 2428 2.8 21:41:00 10° NNW 21:46:15 71° NNE 21:46:15 71° NNE
GEOS 3 Rocket 3.9 21:46:06 10° NNE 21:50:25 63° NNE 21:50:25 63° NNE
Cosmos 2219 Rocket 3.3 21:51:41 10° NW 21:55:47 34° W 21:55:47 34° W
Cosmos 371 Rocket 4.1 22:00:27 47° NNW 22:00:27 47° NNW 22:04:07 10° N
Cosmos 2263 Rocket 4.2 22:08:47 16° E 22:08:47 16° E 22:11:19 10° ENE
ALOS 2 4.4 22:11:53 24° NW 22:11:53 24° NW 22:14:04 10° NNW
Cosmos 773 Rocket 4.4 22:05:28 10° NNW 22:09:48 57° NNE 22:09:48 57° NNE
Cosmos 1503 Rocket 4.4 22:11:39 61° NNW 22:11:39 61° NNW 22:16:16 10° NNE
CZ-4C R/B 2.7 22:11:44 45° NNW 22:11:44 45° NNW 22:16:00 10° NNE
CENTAUR R/B 3.2 22:13:10 38° E 22:13:10 38° E 22:17:55 10° NE
SL-12 R/B(2) 4.3 22:12:47 54° SE 22:13:31 56° ESE 22:22:14 10° NE
Cosmos 1777 Rocket 4.4 22:16:03 62° N 22:16:03 62° N 22:20:32 10° NNE
Okean 2 Rocket 4.2 22:17:08 10° N 22:20:12 41° NNE 22:20:12 41° NNE
H-2A R/B 3.5 22:20:47 10° N 22:23:29 34° NNW 22:23:29 34° NNW
Cosmos 1295 Rocket 4.4 22:28:41 74° E 22:28:41 74° E 22:34:42 10° N
Cosmos 2184 Rocket 3.9 22:30:27 84° SE 22:30:35 85° E 22:36:58 10° N
Resurs 1-4 Rocket 4.5 22:29:20 10° ENE 22:30:56 11° E 22:31:27 11° E
Cosmos 2098 Rocket 4.3 22:32:33 10° NNW 22:38:55 53° W 22:38:55 53° W
SL-16 R/B 4.0 22:39:06 10° N 22:43:49 26° ENE 22:47:04 16° ESE
NOSS 0 Rocket 4.2 22:37:56 10° NNW 22:43:21 54° W 22:43:21 54° W
Cosmos 2154 Rocket 3.8 22:46:40 85° SSW 22:46:52 88° W 22:53:10 10° N
Meteor 1-21 Rocket 4.4 22:48:21 62° E 22:48:23 62° E 22:54:03 10° NNE
Cosmos 1025 Rocket 4.1 22:49:52 44° NNE 22:49:52 44° NNE 22:52:54 10° N
NOSS 3-2 (A) 3.7 22:51:17 47° E 22:51:17 47° E 22:55:56 10° NE
Cosmos 2237 Rocket 2.2 22:47:17 10° NNW 22:52:21 69° NW 22:52:21 69° NW
Cosmos 2227 Rocket 2.3 22:53:35 66° WNW 22:53:35 66° WNW 22:59:09 10° NNE
Cosmos 1898 Rocket 4.5 22:54:42 37° E 22:54:42 37° E 22:59:02 10° NE
Cosmos 2327 Rocket 4.5 22:55:11 63° ESE 22:55:37 65° E 23:01:37 10° NNE
Meteor 2-11 Rocket 4.2 22:56:44 83° SW 22:56:56 85° W 23:03:02 10° N
Nimbus 7 Rocket 4.5 22:59:12 10° N 23:05:12 67° WNW 23:05:40 64° W
Cosmos 1980 4.1 23:00:03 10° NNW 23:04:39 50° WNW 23:04:39 50° WNW
USA 267 4.0 23:03:09 10° ENE 23:09:00 34° SE 23:09:13 34° SE
SL-8 Rocket 4.5 23:09:19 44° ESE 23:10:29 49° E 23:16:23 10° NNE
Cosmos 2219 3.0 23:12:45 85° W 23:12:49 86° WNW 23:18:28 10° NNE
Cosmos 2297 Rocket 3.8 23:13:10 22° WNW 23:14:21 23° WNW 23:18:47 10° N
Cosmos 962 Rocket 4.4 23:17:34 65° SSE 23:18:33 80° E 23:24:55 10° N
CRYOSAT 2 4.4 23:16:17 10° N 23:20:49 76° NNW 23:20:49 76° NNW
CZ-2D R/B 3.1 23:19:28 10° NNE 23:24:22 36° E 23:25:12 34° ESE
CZ-2C R/B 4.2 23:24:34 10° NNE 23:29:24 33° E 23:30:31 30° ESE
IDEFIX/ARIANE 42P 2.7 23:27:05 10° NNE 23:32:17 63° ESE 23:32:47 60° SE
SL-4 R/B 2.8 23:28:23 10° NW 23:32:34 52° NE 23:34:12 33° E
Cosmos 2341 Rocket 3.9 23:31:26 61° S 23:32:36 82° E 23:38:49 10° N
NPP 3.7 23:29:20 10° NNE 23:34:42 65° ESE 23:35:24 59° SE
Aureole 1 Rocket 4.1 23:40:08 30° NNW 23:40:08 30° NNW 23:42:36 10° N
Cosmos 1544 Rocket 4.5 23:37:11 10° N 23:41:25 43° E 23:42:11 39° ESE
MSX 3.9 23:38:10 10° NNE 23:43:53 70° ESE 23:45:07 53° SSE
Cosmos 1975 Rocket 3.8 23:49:29 41° NW 23:49:29 41° NW 23:53:04 10° N
MOZ.5/SAFIR/RUBIN 5/SL-8 3.7 23:49:47 71° W 23:49:47 71° W 23:54:16 10° NNW
Cosmos 2263 Rocket 2.3 23:50:27 52° W 23:51:17 58° WNW 23:56:48 10° NNE
Cosmos 864 Rocket 4.4 23:51:15 53° SSW 23:52:55 86° W 23:59:17 10° N
Cosmos 1461 3.0 23:54:22 68° NNE 23:54:22 68° NNE 23:57:50 10° NNE
